User: anonymous   Login
Location: Hopkins Observatory
(42.6965°N, 73.1843°W)
Time: 04:41:29
(UTC-05:00)
Language:

UOSAT-12 - Orbit

View from above orbital plane
View from above orbital plane
View from above satellite
View from above satellite

Ground track
Ground track

The orbit data is extracted from the following two-line orbital elements,

1 25693U 99021A   14332.55057422  .00000940  00000-0  13998-3 0  6756
2 25693 064.5568 116.2225 0049563 267.0040 159.2199 14.80167550842249
Epoch (UTC): 28 November 2014 13:12:49
Eccentricity: 0.0049563
inclination: 64.5568°
perigee height: 594 km
apogee height: 663 km
right ascension of ascending node: 116.2225°
argument of perigee: 267.0040°
revolutions per day: 14.80167550
mean anomaly at epoch: 159.2199°
orbit number at epoch: 84224

The dashed part of the orbit path shows where the satellite is in the earth's shadow,  

DLR